Hourly Weather Alindao

Today, 7 March, Sunday

Time Temperature Precipitation Wind Pressure Humidity
00:00 +31°C° 0 mm 1 mps 718 mmHg 20%
01:00 +30°C° 0 mm 1 mps 718 mmHg 21%
02:00 +29°C° 0 mm 1 mps 718 mmHg 22%
03:00 +28°C° 0 mm 1 mps 718 mmHg 23%
04:00 +27°C° 0 mm 1 mps 718 mmHg 24%
05:00 +28°C° 0 mm 1 mps 718 mmHg 27%
06:00 +28°C° 0 mm 2 mps 719 mmHg 29%
07:00 +28°C° 0 mm 2 mps 720 mmHg 32%
08:00 +30°C° 0 mm 2 mps 720 mmHg 32%
09:00 +34°C° 0 mm 2 mps 720 mmHg 31%
10:00 +37°C° 0 mm 3 mps 720 mmHg 31%
11:00 +40°C° 0 mm 2 mps 720 mmHg 26%
12:00 +42°C° 0 mm 1 mps 719 mmHg 21%
13:00 +45°C° 0 mm 1 mps 718 mmHg 16%
14:00 +43°C° 0 mm 1 mps 717 mmHg 16%
15:00 +41°C° 0 mm 1 mps 716 mmHg 17%
16:00 +40°C° 0 mm 1 mps 716 mmHg 18%
17:00 +36°C° 0 mm 1 mps 716 mmHg 22%
18:00 +33°C° 0 mm 1 mps 716 mmHg 26%
19:00 +30°C° 0 mm 1 mps 716 mmHg 30%
20:00 +30°C° 0 mm 1 mps 717 mmHg 32%
21:00 +29°C° 0 mm 1 mps 717 mmHg 34%
22:00 +29°C° 0 mm 1 mps 718 mmHg 36%
23:00 +28°C° 0 mm 1 mps 717 mmHg 42%

Tomorrow, 8 March, Monday

Time Temperature Precipitation Wind Pressure Humidity
00:00 +27°C° 0 mm 2 mps 717 mmHg 48%
01:00 +26°C° 0 mm 2 mps 717 mmHg 54%
02:00 +25°C° 0 mm 2 mps 717 mmHg 63%
03:00 +24°C° 0 mm 1 mps 717 mmHg 72%
04:00 +23°C° 0 mm 1 mps 717 mmHg 81%
05:00 +24°C° 0 mm 1 mps 718 mmHg 79%
06:00 +24°C° 0 mm 1 mps 719 mmHg 78%
07:00 +25°C° 0 mm 1 mps 719 mmHg 77%
08:00 +28°C° 0 mm 2 mps 719 mmHg 66%
09:00 +31°C° 0 mm 2 mps 720 mmHg 55%
10:00 +35°C° 0 mm 3 mps 720 mmHg 44%
11:00 +38°C° 0 mm 2 mps 719 mmHg 37%
12:00 +40°C° 0 mm 2 mps 718 mmHg 30%
13:00 +42°C° 0 mm 2 mps 717 mmHg 23%
14:00 +41°C° 0 mm 1 mps 717 mmHg 25%
15:00 +39°C° 0 mm 1 mps 716 mmHg 27%
16:00 +36°C° 0 mm 1 mps 715 mmHg 29%
17:00 +34°C° 0 mm 1 mps 715 mmHg 33%
18:00 +32°C° 0 mm 1 mps 716 mmHg 37%
19:00 +30°C° 0 mm 1 mps 716 mmHg 41%
20:00 +30°C° 0 mm 1 mps 716 mmHg 42%
21:00 +29°C° 0 mm 1 mps 717 mmHg 43%
22:00 +28°C° 0 mm 1 mps 717 mmHg 43%
23:00 +28°C° 0 mm 1 mps 717 mmHg 46%

Day after tomorrow, 9 March, Tuesday

Time Temperature Precipitation Wind Pressure Humidity
00:00 +27°C° 0 mm 2 mps 717 mmHg 48%
01:00 +27°C° 0 mm 2 mps 717 mmHg 50%
02:00 +26°C° 0 mm 2 mps 717 mmHg 55%
03:00 +25°C° 0 mm 2 mps 717 mmHg 60%
04:00 +25°C° 0 mm 2 mps 717 mmHg 66%
05:00 +25°C° 0 mm 2 mps 718 mmHg 68%
06:00 +25°C° 0 mm 3 mps 719 mmHg 71%
07:00 +26°C° 0 mm 3 mps 720 mmHg 73%
08:00 +28°C° 0 mm 3 mps 720 mmHg 65%
09:00 +31°C° 0 mm 3 mps 720 mmHg 56%
10:00 +34°C° 0 mm 3 mps 720 mmHg 47%
11:00 +37°C° 0 mm 2 mps 719 mmHg 40%
12:00 +40°C° 0 mm 2 mps 718 mmHg 32%
13:00 +43°C° 0 mm 1 mps 717 mmHg 24%
14:00 +42°C° 0 mm 1 mps 717 mmHg 25%
15:00 +40°C° 0 mm 1 mps 716 mmHg 25%
16:00 +36°C° 0 mm 0 mps 715 mmHg 26%
17:00 +34°C° 0 mm 0 mps 716 mmHg 30%
18:00 +34°C° 0 mm 1 mps 716 mmHg 34%
19:00 +32°C° 0 mm 1 mps 716 mmHg 38%
20:00 +31°C° 0 mm 1 mps 716 mmHg 42%
21:00 +30°C° 0 mm 1 mps 717 mmHg 46%
22:00 +29°C° 0 mm 1 mps 717 mmHg 50%
23:00 +28°C° 0 mm 1 mps 717 mmHg 54%

10 March, Wednesday

Time Temperature Precipitation Wind Pressure Humidity
00:00 +27°C° 0 mm 1 mps 717 mmHg 58%
01:00 +26°C° 0 mm 1 mps 717 mmHg 62%
02:00 +25°C° 0 mm 1 mps 717 mmHg 65%
03:00 +25°C° 0 mm 1 mps 717 mmHg 69%
04:00 +24°C° 0 mm 1 mps 717 mmHg 72%
05:00 +25°C° 0 mm 2 mps 718 mmHg 70%
06:00 +26°C° 0 mm 2 mps 718 mmHg 68%
07:00 +27°C° 0 mm 2 mps 719 mmHg 66%
08:00 +30°C° 0 mm 2 mps 719 mmHg 55%
09:00 +35°C° 0 mm 2 mps 719 mmHg 44%
10:00 +38°C° 0 mm 2 mps 719 mmHg 34%
11:00 +41°C° 0 mm 2 mps 719 mmHg 28%
12:00 +44°C° 0 mm 1 mps 718 mmHg 23%
13:00 +47°C° 0 mm 1 mps 717 mmHg 17%
14:00 +45°C° 0 mm 1 mps 716 mmHg 19%
15:00 +43°C° 0 mm 1 mps 716 mmHg 21%
16:00 +40°C° 0 mm 1 mps 715 mmHg 23%
17:00 +37°C° 0 mm 1 mps 715 mmHg 27%
18:00 +35°C° 0 mm 1 mps 715 mmHg 30%
19:00 +32°C° 0 mm 1 mps 716 mmHg 34%
20:00 +32°C° 0 mm 1 mps 716 mmHg 35%
21:00 +31°C° 0 mm 1 mps 716 mmHg 37%
22:00 +30°C° 0 mm 1 mps 717 mmHg 38%
23:00 +29°C° 0 mm 1 mps 716 mmHg 41%

11 March, Thursday

Time Temperature Precipitation Wind Pressure Humidity
00:00 +28°C° 0 mm 1 mps 716 mmHg 44%
01:00 +27°C° 0 mm 1 mps 715 mmHg 47%
02:00 +27°C° 0 mm 1 mps 715 mmHg 49%
03:00 +26°C° 0 mm 1 mps 715 mmHg 52%
04:00 +25°C° 0 mm 1 mps 715 mmHg 54%
05:00 +26°C° 0 mm 1 mps 716 mmHg 52%
06:00 +27°C° 0 mm 1 mps 717 mmHg 50%
07:00 +28°C° 0 mm 1 mps 718 mmHg 49%
08:00 +32°C° 0 mm 1 mps 718 mmHg 41%
09:00 +36°C° 0 mm 2 mps 718 mmHg 34%
10:00 +40°C° 0 mm 3 mps 719 mmHg 27%
11:00 +42°C° 0 mm 2 mps 718 mmHg 24%
12:00 +45°C° 0 mm 2 mps 717 mmHg 20%
13:00 +46°C° 0 mm 1 mps 716 mmHg 17%
14:00 +44°C° 0 mm 1 mps 715 mmHg 18%
15:00 +43°C° 0 mm 1 mps 715 mmHg 19%
16:00 +42°C° 0 mm 1 mps 714 mmHg 20%
17:00 +39°C° 0 mm 1 mps 715 mmHg 24%
18:00 +35°C° 0 mm 1 mps 715 mmHg 28%
19:00 +31°C° 0 mm 0 mps 715 mmHg 32%
20:00 +32°C° 0 mm 1 mps 715 mmHg 34%
21:00 +31°C° 0 mm 1 mps 716 mmHg 36%
22:00 +30°C° 0 mm 1 mps 716 mmHg 39%
23:00 +29°C° 0 mm 1 mps 715 mmHg 41%

12 March, Friday

Time Temperature Precipitation Wind Pressure Humidity
00:00 +28°C° 0 mm 1 mps 715 mmHg 44%
01:00 +27°C° 0 mm 1 mps 715 mmHg 47%
02:00 +27°C° 0 mm 1 mps 715 mmHg 47%
03:00 +27°C° 0 mm 1 mps 715 mmHg 48%
04:00 +27°C° 0 mm 1 mps 715 mmHg 48%
05:00 +28°C° 0 mm 1 mps 716 mmHg 47%
06:00 +28°C° 0 mm 1 mps 717 mmHg 46%
07:00 +27°C° 0 mm 0 mps 718 mmHg 45%
08:00 +32°C° 0 mm 1 mps 718 mmHg 40%
09:00 +36°C° 0 mm 2 mps 719 mmHg 34%
10:00 +40°C° 0 mm 2 mps 719 mmHg 29%
11:00 +39°C° 0.1 mm 3 mps 718 mmHg 31%
12:00 +38°C° 0.1 mm 3 mps 717 mmHg 34%
13:00 +37°C° 0.1 mm 4 mps 715 mmHg 37%
14:00 +37°C° 0.2 mm 3 mps 715 mmHg 36%
15:00 +37°C° 0.2 mm 2 mps 715 mmHg 35%
16:00 +36°C° 0.2 mm 1 mps 714 mmHg 34%
17:00 +34°C° 0 mm 1 mps 714 mmHg 36%
18:00 +32°C° 0 mm 1 mps 715 mmHg 39%
19:00 +30°C° 0 mm 1 mps 715 mmHg 42%
20:00 +29°C° 0 mm 1 mps 715 mmHg 47%
21:00 +28°C° 0 mm 1 mps 715 mmHg 53%
22:00 +26°C° 0 mm 1 mps 716 mmHg 59%
23:00 +26°C° 0 mm 2 mps 715 mmHg 63%
Show more